Location: *
(39.6167°S, 171.5333°W)
Time: 22:39:41
(UTC+00:00)

In-Cosmos 22 Rocket - Pass Details

Date: 13 May 2021
Orbit: 790 x 888 km, 81.2° (Epoch: 15 June)

Event Time Altitude Azimuth Distance (km) Brightness Sun altitude
Exits shadow 15:47:49 74° 111° (ESE) 880 4.3 -29.7°
Maximum altitude 15:47:55 74° 100° (E) 879 4.3 -29.7°
Drops below altitude 10° 15:53:33 10° 14° (NNE) 2,479 6.8 -28.6°
Sets 15:55:59 0° 12° (NNE) 3,422 7.5 -28.2°
